"Pseudo-MPEC" for P10X1YT

Created 2020 Feb 24 2:07:11 UT using Find_Orb

Click here for an explanation of pseudo-MPECs

 
 Astrometry: 
     P10X1YT  C2020 01 26xAksAstrometrymRQ-qpbfi*.]B[p,i]Kk_Pl#8w7jr\c?4nM,e5F51
     P10X1YT  C2020 01 26LTsZ8b_E(redacted;Q*2waJtRnm5X2IL9/k)[F8r2OqyWH)CyDnF51
     P10X1YT  C2020 01 26tvA1tS5!GclickDlPl,v*%.^T%]e(@.'VU;svG*oH+:o5heretaAF51
     P10X1YT KC2020 01 27.25351 08 43 58.96 +47 32 18.2    ~1R7M 21.7 RoNEOCP291
     P10X1YT KC2020 01 27.26156 08 43 58.59 +47 31 25.2    ~1R7M 22.3 RoNEOCP291
     P10X1YT KC2020 01 27.26979 08 43 58.16 +47 30 30.4    ~1R7M 21.9 RoNEOCP291
     P10X1YT  C2020 01 27pFX*.7BM?6![l0P?-0Akivt8en,FaP*ogw-C3b$Yr.SYt$D=TV?fF51
     P10X1YT  C2020 01 270^Vg4:6A3cdF%Bw*Y1H-5mJjeZ/,j5DFYfor;m5\RMWv-.@?NMUuF51
     P10X1YT  C2020 01 27QE;explanation2TGDE#$mmTtyT!V*b?0(^^/94`8OrGPOkuRkTJF51

Station data:
(291) LPL/Spacewatch II  (N31.961669 W111.599905)  US/Arizona.  Observers J.
   V. Scotti, R. S. McMillan. 1.8-m f/2.7 reflector + CCD.
(F51) Pan-STARRS 1, Haleakala  (N20.707235 W156.255910)  US/Hawaii.
   Observers N. Primak, A. Schultz, S. Watters, J. Thiel, T. Goggia. Measurer
   PS1 Science Consortium. 1.8-m Ritchey-Chrétien + CCD.

Orbital elements:  P10X1YT
   Perihelion 2019 Dec 6.529702 +/- 0.229 TT = 12:42:46 (JD 2458824.029702)
Epoch 2020 Jan 27.0 TT = JDT 2458875.5   Earth MOID: 0.0698   Ma: 0.0252
M  19.28411307 +/- 1.6              (J2000 ecliptic)          AutoNEOCP
n   0.37466488 +/- 0.0309           Peri.   84.08274 +/- 1.1
a   1.90563939 +/- 0.105            Node   337.93234 +/- 0.57
e   0.5280495 +/- 0.0295            Incl.    6.58045 +/- 0.21
P   2.63/960.84d           H 25.0   G  0.15   U 10.4  
q 0.89936745 +/- 0.00685    Q 2.91191133 +/- 0.207
From 9 observations 2020 Jan. 26-27 (22.0 hr); mean residual 0".18
Residuals in arcseconds: 
200126 F51  .02+  .22+    200127 291  .22-  .01-    200127 F51  .30+  .33-    
200126 F51  .00   .13+    200127 291  .09+  .21+    200127 F51  .01-  .28+    
200126 F51  .01+  .38-    200127 291  .06-  .12-    200127 F51  .06-  .03-    

Ephemerides (geocentric):
Date (UTC) HH   RA              Dec         delta   r     elong  mag " sig PA
---- -- -- --  -------------   -----------  ------ ------ -----  --- ---- ---
2020 02 24 02  08 46 01.835   +22 29 44.04  .35976 1.3200 152.9 24.4  701 177
2020 02 24 03  08 46 02.912   +22 28 42.97  .36016 1.3203 152.9 24.4  701 177
2020 02 24 04  08 46 03.991   +22 27 42.00  .36057 1.3206 152.9 24.4  702 177
2020 02 24 05  08 46 05.073   +22 26 41.13  .36097 1.3209 152.8 24.4  703 177
2020 02 24 06  08 46 06.158   +22 25 40.37  .36137 1.3213 152.8 24.4  704 177
2020 02 24 07  08 46 07.245   +22 24 39.71  .36178 1.3216 152.8 24.4  704 177
2020 02 24 08  08 46 08.335   +22 23 39.16  .36218 1.3219 152.7 24.4  705 177
2020 02 24 09  08 46 09.427   +22 22 38.70  .36258 1.3222 152.7 24.4  706 177
2020 02 24 10  08 46 10.522   +22 21 38.35  .36299 1.3226 152.7 24.5  706 177
2020 02 24 11  08 46 11.620   +22 20 38.10  .36339 1.3229 152.6 24.5  707 177
2020 02 24 12  08 46 12.720   +22 19 37.95  .36380 1.3232 152.6 24.5  708 177
2020 02 24 13  08 46 13.823   +22 18 37.91  .36420 1.3235 152.6 24.5  709 177
2020 02 24 14  08 46 14.929   +22 17 37.96  .36461 1.3238 152.5 24.5  709 177
2020 02 24 15  08 46 16.037   +22 16 38.12  .36501 1.3242 152.5 24.5  710 177
2020 02 24 16  08 46 17.147   +22 15 38.37  .36542 1.3245 152.5 24.5  711 177
2020 02 24 17  08 46 18.261   +22 14 38.73  .36582 1.3248 152.5 24.5  711 177
2020 02 24 18  08 46 19.377   +22 13 39.18  .36623 1.3251 152.4 24.5  712 177
2020 02 24 19  08 46 20.495   +22 12 39.74  .36664 1.3254 152.4 24.5  713 177
2020 02 24 20  08 46 21.616   +22 11 40.39  .36704 1.3258 152.4 24.5  714 177
2020 02 24 21  08 46 22.740   +22 10 41.15  .36745 1.3261 152.3 24.5  714 177
2020 02 24 22  08 46 23.867   +22 09 42.00  .36786 1.3264 152.3 24.5  715 177
2020 02 24 23  08 46 24.995   +22 08 42.95  .36826 1.3267 152.3 24.5  716 177
2020 02 25 00  08 46 26.127   +22 07 44.00  .36867 1.3271 152.2 24.5  716 177
2020 02 25 01  08 46 27.261   +22 06 45.15  .36908 1.3274 152.2 24.5  717 176
2020 02 25 02  08 46 28.398   +22 05 46.40  .36948 1.3277 152.2 24.5  718 176
2020 02 25 03  08 46 29.537   +22 04 47.74  .36989 1.3280 152.1 24.5  718 176
2020 02 25 04  08 46 30.679   +22 03 49.18  .37030 1.3283 152.1 24.5  719 176
2020 02 25 05  08 46 31.824   +22 02 50.72  .37071 1.3287 152.1 24.5  720 176
2020 02 25 06  08 46 32.971   +22 01 52.36  .37112 1.3290 152.0 24.5  720 176
2020 02 25 07  08 46 34.121   +22 00 54.09  .37153 1.3293 152.0 24.5  721 176
2020 02 25 08  08 46 35.273   +21 59 55.92  .37194 1.3296 152.0 24.5  722 176
2020 02 25 09  08 46 36.428   +21 58 57.85  .37235 1.3300 152.0 24.5  722 176
2020 02 25 10  08 46 37.585   +21 57 59.87  .37276 1.3303 151.9 24.5  723 176
2020 02 25 11  08 46 38.745   +21 57 01.98  .37317 1.3306 151.9 24.5  724 176
2020 02 25 12  08 46 39.908   +21 56 04.19  .37358 1.3309 151.9 24.5  725 176
2020 02 25 13  08 46 41.073   +21 55 06.50  .37399 1.3312 151.8 24.5  725 176
2020 02 25 14  08 46 42.241   +21 54 08.90  .37440 1.3316 151.8 24.5  726 176
2020 02 25 15  08 46 43.412   +21 53 11.40  .37481 1.3319 151.8 24.6  727 176
2020 02 25 16  08 46 44.585   +21 52 13.99  .37522 1.3322 151.7 24.6  727 176
2020 02 25 17  08 46 45.760   +21 51 16.68  .37563 1.3325 151.7 24.6  728 176
2020 02 25 18  08 46 46.939   +21 50 19.46  .37604 1.3329 151.7 24.6  729 176
2020 02 25 19  08 46 48.119   +21 49 22.33  .37645 1.3332 151.6 24.6  729 176
2020 02 25 20  08 46 49.303   +21 48 25.30  .37686 1.3335 151.6 24.6  730 176
2020 02 25 21  08 46 50.489   +21 47 28.36  .37728 1.3338 151.6 24.6  731 176
2020 02 25 22  08 46 51.677   +21 46 31.51  .37769 1.3341 151.5 24.6  731 176
2020 02 25 23  08 46 52.869   +21 45 34.75  .37810 1.3345 151.5 24.6  732 176
2020 02 26 00  08 46 54.062   +21 44 38.09  .37851 1.3348 151.5 24.6  733 176
2020 02 26 01  08 46 55.259   +21 43 41.52  .37893 1.3351 151.5 24.6  733 176